This demonstration page uses our WeatherBlox Daily Observations layout. Learn more.

40.92945, -100.16068

Hourly Observations for January 15, 2018

Temp ( °F °C ) Dew Point ( °F °C ) Humidity (%) Winds ( mph kmh ) Pressure ( in mb ) Visibility ( mi km ) Precip ( " mm )
12:15 am 00:15 Cloudy 27 -2.7 17 -8.6 64 64 NNW 23 37 30.45 1031 10 16.0934 0 0
12:35 am 00:35 Mostly Cloudy 24 -4.3 13 -10.6 62 62 N 25 41 30.48 1032 10 16.0934 0 0
12:55 am 00:55 Mostly Cloudy 21 -6 11 -11.8 64 64 N 25 41 30.5 1033 10 16.0934 0 0
1:15 am 01:15 Partly Cloudy 20 -6.5 10 -12.2 64 64 N 22 35 30.5 1033 10 16.0934 0 0
1:35 am 01:35 Partly Cloudy 19 -7 8 -13.6 60 60 N 18 30 30.53 1034 10 16.0934 0 0
1:55 am 01:55 Partly Cloudy 19 -7.5 8 -13.2 64 64 N 17 28 30.53 1034 10 16.0934 0 0
2:15 am 02:15 Partly Cloudy 18 -8 7 -14 62 62 N 16 26 30.56 1035 10 16.0934 0 0
2:35 am 02:35 Partly Cloudy 16 -8.7 4 -15.4 59 59 N 20 31 30.59 1036 10 16.0934 0 0
2:55 am 02:55 Partly Cloudy 15 -9.2 5 -15.1 63 63 NNW 16 26 30.59 1036 10 16.0934 0 0
3:15 am 03:15 Clear 15 -9.5 4 -15.7 61 61 NNW 16 26 30.59 1036 10 16.0934 0 0
3:35 am 03:35 Clear 14 -10.2 3 -16 63 63 N 16 26 30.59 1036 10 16.0934 0 0
3:55 am 03:55 Clear 13 -10.6 5 -15.1 70 70 N 16 26 30.62 1037 10 16.0934 0 0
4:15 am 04:15 Clear 12 -11 4 -15.5 70 70 N 18 30 30.62 1037 10 16.0934 0 0
4:35 am 04:35 Clear 12 -11.2 4 -15.7 70 70 N 13 20 30.62 1037 10 16.0934 0 0
4:55 am 04:55 Clear 11 -11.5 4 -15.7 71 71 NNW 16 26 30.62 1037 10 16.0934 0 0
5:15 am 05:15 Clear 11 -11.9 3 -15.9 72 72 N 13 20 30.65 1038 10 16.0934 0 0
5:35 am 05:35 Clear 9 -12.6 2 -16.4 74 74 N 12 19 30.65 1038 10 16.0934 0 0
5:55 am 05:55 Clear 9 -13 2 -16.5 75 75 NNW 13 20 30.68 1039 10 16.0934 0 0
6:15 am 06:15 Partly Cloudy 8 -13.1 2 -16.6 75 75 NNW 9 15 30.71 1040 10 16.0934 0 0
6:35 am 06:35 Mostly Cloudy 8 -13.6 0 -17.7 71 71 NNW 17 28 30.74 1041 10 16.0934 0 0
6:55 am 06:55 Partly Cloudy 6 -14.3 -1 -18.5 71 71 NNW 13 20 30.74 1041 10 16.0934 0 0
7:15 am 07:15 Clear 6 -14.6 -2 -18.9 70 70 NNW 16 26 30.8 1043 10 16.0934 0 0
7:35 am 07:35 Clear 5 -15 -3 -19.3 70 70 NNW 20 31 30.8 1043 10 16.0934 0 0
7:55 am 07:55 Clear 5 -15.2 -3 -19.5 70 70 NNW 17 28 30.8 1043 10 16.0934 0 0
8:15 am 08:15 Sunny 4 -15.5 -3 -19.6 71 71 NNW 12 19 30.83 1044 10 16.0934 0 0
8:35 am 08:35 Partly Cloudy 4 -15.6 -3 -19.5 72 72 NNW 12 19 30.83 1044 10 16.0934 0 0
8:55 am 08:55 Sunny 5 -15.2 -3 -19.4 71 71 NNW 14 22 30.83 1044 10 16.0934 0 0
9:15 am 09:15 Sunny 5 -15.2 -3 -19.7 69 69 NW 16 26 30.86 1045 10 16.0934 0 0
9:35 am 09:35 Sunny 5 -15.1 -4 -20 66 66 NNW 20 31 30.86 1045 10 16.0934 0 0
9:55 am 09:55 Sunny 5 -14.9 -5 -20.4 63 63 NNW 17 28 30.86 1045 10 16.0934 0 0
10:15 am 10:15 Sunny 6 -14.6 -4 -20.2 63 63 NNW 17 28 30.86 1045 10 16.0934 0 0
10:35 am 10:35 Sunny 6 -14.5 -5 -20.5 61 61 NNW 17 28 30.89 1046 10 16.0934 0 0
10:55 am 10:55 Sunny 6 -14.3 -5 -20.6 59 59 N 18 30 30.89 1046 10 16.0934 0 0
11:15 am 11:15 Sunny 6 -14.2 -6 -20.9 57 57 NNW 21 33 30.89 1046 10 16.0934 0 0
11:35 am 11:35 Sunny 6 -14.3 -6 -20.9 58 58 N 21 33 30.89 1046 10 16.0934 0 0
11:55 am 11:55 Sunny 7 -14.1 -5 -20.6 58 58 NNW 18 30 30.89 1046 10 16.0934 0 0
12:15 pm 12:15 Sunny 7 -13.9 -6 -20.9 56 56 NNW 24 39 30.89 1046 10 16.0934 0 0
12:35 pm 12:35 Sunny 7 -13.8 -5 -20.3 58 58 NNW 22 35 30.83 1044 10 16.0934 0 0
12:55 pm 12:55 Sunny 7 -14.1 -5 -20.4 59 59 NNW 24 39 30.86 1045 10 16.0934 0 0
1:15 pm 13:15 Sunny 7 -13.8 -4 -19.9 60 60 NNW 22 35 30.83 1044 10 16.0934 0 0
1:35 pm 13:35 Partly Cloudy 7 -13.8 -4 -19.9 60 60 NNW 26 43 30.83 1044 10 16.0934 0 0
1:55 pm 13:55 Sunny 7 -13.7 -3 -19.7 61 61 N 20 31 30.83 1044 10 16.0934 0 0
2:15 pm 14:15 Partly Cloudy 8 -13.6 -3 -19.6 61 61 NNW 22 35 30.83 1044 10 16.0934 0 0
2:35 pm 14:35 Partly Cloudy 8 -13.6 -3 -19.7 60 60 NNW 24 39 30.83 1044 10 16.0934 0 0
2:55 pm 14:55 Sunny 8 -13.5 -3 -19.4 61 61 NNW 23 37 30.83 1044 10 16.0934 0 0
3:15 pm 15:15 Sunny 8 -13.2 -3 -19.5 59 59 NNW 23 37 30.83 1044 10 16.0934 0 0
3:35 pm 15:35 Partly Cloudy 8 -13.3 -3 -19.6 59 59 NW 22 35 30.83 1044 10 16.0934 0 0
3:55 pm 15:55 Partly Cloudy 8 -13.4 -4 -19.8 59 59 NNW 23 37 30.86 1045 10 16.0934 0 0
4:15 pm 16:15 Sunny 8 -13.3 -3 -19.6 59 59 NNW 23 37 30.86 1045 10 16.0934 0 0
4:35 pm 16:35 Sunny 8 -13.5 -4 -19.8 59 59 NW 23 37 30.86 1045 10 16.0934 0 0
4:55 pm 16:55 Sunny 7 -13.7 -4 -20 59 59 NNW 24 39 30.89 1046 10 16.0934 0 0
5:15 pm 17:15 Sunny 7 -14 -4 -20.2 60 60 NNW 20 31 30.89 1046 10 16.0934 0 0
5:35 pm 17:35 Sunny 6 -14.3 -5 -20.4 60 60 NNW 17 28 30.89 1046 10 16.0934 0 0
5:55 pm 17:55 Clear 6 -14.5 -5 -20.3 62 62 NNW 21 33 30.89 1046 10 16.0934 0 0
6:15 pm 18:15 Clear 5 -14.8 -5 -20.5 62 62 NNW 15 24 30.92 1047 10 16.0934 0 0
6:35 pm 18:35 Clear 5 -15 -5 -20.5 63 63 NNW 20 31 30.92 1047 10 16.0934 0 0
6:55 pm 18:55 Clear 5 -15.1 -5 -20.5 64 64 NNW 15 24 30.92 1047 10 16.0934 0 0
7:15 pm 19:15 Clear 5 -15.2 -5 -20.5 64 64 NNW 14 22 30.95 1048 10 16.0934 0 0
7:35 pm 19:35 Clear 4 -15.4 -5 -20.5 65 65 NNW 14 22 30.95 1048 10 16.0934 0 0
7:55 pm 19:55 Clear 4 -15.3 -5 -20.5 65 65 NNW 16 26 30.92 1047 10 16.0934 0 0
8:15 pm 20:15 Clear 4 -15.5 -5 -20.6 65 65 NW 20 31 30.95 1048 10 16.0934 0 0
8:35 pm 20:35 Clear 4 -15.5 -5 -20.7 65 65 NNW 14 22 30.95 1048 10 16.0934 0 0
8:55 pm 20:55 Clear 4 -15.5 -6 -20.9 64 64 NNW 15 24 30.95 1048 10 16.0934 0 0
9:15 pm 21:15 Clear 4 -15.7 -6 -21 64 64 NNW 14 22 30.95 1048 10 16.0934 0 0
9:35 pm 21:35 Clear 3 -16 -6 -21.1 65 65 NNW 16 26 30.98 1049 10 16.0934 0 0
9:55 pm 21:55 Clear 3 -16 -7 -21.5 63 63 NNW 16 26 30.98 1049 10 16.0934 0 0
10:15 pm 22:15 Clear 3 -16.1 -7 -21.5 63 63 NNW 17 28 30.98 1049 10 16.0934 0 0
10:35 pm 22:35 Clear 3 -16.2 -7 -21.6 63 63 NNW 16 26 30.98 1049 10 16.0934 0 0
10:55 pm 22:55 Clear 2 -16.5 -7 -21.9 63 63 NNW 14 22 30.98 1049 10 16.0934 0 0
11:15 pm 23:15 Clear 2 -16.6 -7 -21.9 64 64 NNW 16 26 31.01 1050 10 16.0934 0 0
11:35 pm 23:35 Clear 2 -16.7 -8 -22.1 63 63 NNW 15 24 31.01 1050 10 16.0934 0 0
11:55 pm 23:55 Clear 2 -16.8 -8 -22.2 63 63 NNW 15 24 31.01 1050 10 16.0934 0 0

Powered by AerisWeather